Погода в Ключи

Погода в Ключи : погода сейчас, прогноз погоды и архив. Всё, что Вы хотите узнать о погоде в Ключи!

Хотите узнать прогноз погоды в Ключи? Тогда Вам сюда: Погода в Ключи

Поиск расширенной информации на нашем сайте:

Другие новости

Новости СМИ2

Главная страница сайта

Новости сайта

03.07.2017

Напоминаем, что на нашем специализированном сайте Метеоцентр.Азия вы можете получить высокодетализированные автоматические прогнозы погоды по пунктам России, СНГ и мира в авиационном формате (включающие направление и скорость ветра, видимость, явления погоды, количество и форму облачности, нижнюю и верхнюю границу облачности).


Погода в Ключи - сегодня

Время (UTC), дата Ветер
(°,м/с) 
Видим.   Явления Облачность Т
(°С)
Тd
(°С)
f(%) Тe
(°С)
Pmin
(гПа)
dP
(гПа)
Po
(мм)
O2
(г/м3)
Тmin Tmax R s Состояние
почвы
03 17.11.18 280 (З) 20000 м    9/3 1000 м средняя 
[Sc|Ac trans]
-2.2 -7.2 69 -3  1013  -0.4  757  308           
06 17.11.18 270 (З) 20000 м    4/3 1000 м средняя 
[Sc|Ac trans]
-5.2 -7.9 81 -5  1013.3  0.3  757  312           
12 17.11.18 220 (ЮЗ) 20000 м    9/4 1000 м средняя 
[Sc|Ac trans]
-6.4 -8.1 88 -6  1013.9  0.1  758  313           
15 17.11.18 120 (ЮВ) 20000 м    8/3 1000 м средняя 
[Sc|Ac trans]
-8.4 -9.7 90 -10  1013.4  -0.5  757  316           
18 17.11.18 120 (ЮВ) 20000 м    9/4 1000 м средняя 
[Sc|Ac trans]
-7.5 -8.7 91 -9  1013.2  -0.2  757  315           
00 18.11.18 120 (ЮВ) 20000 м    9/4 1000 м средняя 
[Sc|Ac trans]
-6.4 -8.1 88 -9  1010.1  -1.8  755  312           
03 18.11.18 120 (ЮВ) 20000 м    10/4 1000 м средняя 
[Sc|Ac As]
-5.3 -7.6 84 -7  1006.6  -3.4  752  310           
09 18.11.18 270 (З) 2000 м  снег  10/10 300 м 
[Frnb|Ns]
-6.2 -7.6 90 -10  1001.5  -2.6  748  309    -5.3       
12 18.11.18 260 (З) 8-13{13}  1000 м  снег  10/10 180 м 
[Frnb|Ns]
-4.4 -5.9 89 -10  1000.6  -0.8  748  307           
21 18.11.18 290 (З) 5{10}  4000 м  слаб. снег  10/10 360 м 
[Frnb|Ns]
-2.9 -6.1 79 -6  1007.5  2.2  753  307  -6.2    10  неравномерный
сухой снег
100% 
00 19.11.18 260 (З) 20000 м  {снег}  10/4 1000 м средняя 
[Sc|Ac As]
-2.7 -5.6 80 -5  1008.8  1.2  754  307           
03 19.11.18 270 (З) 10 км  позёмок{ливн. осадки}  9/8 600 м кучево-дожд., средняя 
[Cb cap|Ac trans]
-1.2 -5.1 75 -4  1009.4  0.6  754  306           
06 19.11.18 230 (ЮЗ) 20000 м  {ливн. осадки}  9/5 1000 м средняя 
[Sc diur, vesp|Ac trans]
-2.8 -5 85 -4  1010.8  1.4  755  308           
12 19.11.18 280 (З) 20000 м    9/4 1000 м средняя 
[Sc|Ac trans]
-9.3 -10.6 90 -9  1012.5  0.9  757  317           
15 19.11.18 тихо ()   20000 м    9/3 1000 м средняя 
[Sc|Ac trans]
-8.6 -9.9 90 -9  1013.2  0.7  757  316           
18 19.11.18 250 (З) 20000 м    8/3 1000 м средняя 
[Sc|Ac trans]
-11.1 -12.3 91 -14  1014.4  1.2  758  320           
00 20.11.18 090 (В) 0500 м  туман  ?/?  
-10.9 -12.5 88 -11  1016.1  0.8  759  320           
03 20.11.18 тихо ()   0500 м  туман  3/3 1000 м 
[Sc]
-9.9 -11.4 89 -10  1016.2  -0.1  759  319           
09 20.11.18 190 (Ю) 2000 м  дымка  10/10 420 м 
[St]
-13.5 -13.5 100 -13  1017.3  1.1  760  323    -9.5       
12 20.11.18 тихо ()   20000 м  туман на расстоянии  8/0 средняя 
[Ac trans]
-15.7 -17.8 84 -16  1017.5  0.2  760  326           
15 20.11.18 тихо ()   10 км  туман на расстоянии  6/0 средняя 
[Ac trans]
-17.3 -19.7 82 -17  1017.9  0.4  761  329           
18 20.11.18 110 (В) 10 км  туман на расстоянии  6/0 средняя 
[Ac trans]
-16.2 -18.4 83 -16  1017.8  0.1  760  327           
21 20.11.18 тихо ()   10 км  туман на расстоянии  6/0 средняя, верхняя 
[Ac trans|Ci fib]
-16 -18.2 83 -16  1017.4  -0.4  760  327  -17.8       
00 21.11.18 280 (З) 10 км  дымка  6/0 средняя, верхняя 
[Ac trans|Ci fib]
-14.9 -16.9 85 -15  1017  -0.3  760  325           
09 21.11.18 110 (В) 4000 м  дымка{снег}  10/10 360 м 
[St]
-9.7 -11.2 89 -11  1012.9  -1.1  757  317    -9.4       
Время (UTC), дата Ветер
(°,м/с) 
Видим.   Явления Облачность Т
(°С)
Тd
(°С)
f(%) Тe
(°С)
Pmin
(гПа)
dP
(гПа)
Po
(мм)
O2
(г/м3)
Тmin Tmax R s Состояние
почвы

Для получения пояснительной информации подведите курсор к названию столбца.

ПОГОДА в Ключи - архив

Всё, что Вы хотите узнать о погоде в Ключи - удобно и подробно!

Выберите нужную дату (начиная с 1 января 2015* года) и нажмите кнопку "Найти".
Будут отображены архивные сводки погоды по пункту Ключи, начиная с указанной даты.


Отображать данные в формате CSV (для использования в таблицах Excel)


Внимание! Наш архив погоды предназначен исключительно для личного некоммерческого использования в познавательных целях. Если Вам необходимы официальные справки о состоянии погоды (для производственных, юридических, коммерческих и т.п. целей), обращайтесь в органы Росгидромета.

*Примечание: данная дата относится к архиву по метеостанциям СССР (Россия, СНГ, Балтия).
Архив по метеостанциям Зарубежной Европы и Азии (кроме Китая) хранится 10 дней, по другим регионам земного шара (Китай, Африка, Америка, Австралия, Океания) - 1 день.

Ключи - район местоположения метеостанции


Название, широта, долгота, высота метеостанции:
Ключи 56.3°ш. 160.8°д. 29 м над ур. моря [Российская Федерация]

Дополнительная информация

В oтличие oт бoльшинства пoгoдных сайтoв мы публикуем пoдрoбную метеoинфoрмацию в детальнoм прoфессиoнальнoм фoрмате.

Характеристики температуры и влажнoсти вoздуха измеряются на высoте 2 м в тени вдали oт зданий и деревьев.
Скoрoсть ветра измеряется на высoте 10 м (на урoвне рoста челoвека скoрoсть ветра ниже в 1.5-2 раза). Если метеoстанция нахoдится в гoрoде или в лесу, тo скoрoсть ветра занижена на 2-4 м/с пo сравнению с oткрытым местoм. Скoрoсть ветра над акватoриями крупных рек и oзёр, а также на вершинах хoлмoв на 2-5 м/с выше, чем в oбычных услoвиях.
Атмoсфернoе давление в разных тoчках местнoсти мoжет значительнo oтличаться oт давления на метеoстанции, в зависимoсти oт услoвий рельефа (при пoдъёме на 10 м давление пoнижается примернo на 1 мм рт.ст.).